Change the Weather History Date:

Monday, September 16, 2013

  Actual Average (KOFK) Record (KOFK)
Temperature  
Mean Temperature 62 °F 64 °F  
Max Temperature 66 °F 77 °F 96 °F (1955)
Min Temperature 57 °F 51 °F 25 °F (1903)
Degree Days  
Heating Degree Days 4 4  
Month to date heating degree days 39  
Since 1 July heating degree days 55  
Cooling Degree Days 0 3  
Month to date cooling degree days 69  
Year to date cooling degree days 885  
Growing Degree Days 12 (Base 50)    
Moisture  
Dew Point 51 °F    
Average Humidity 72    
Maximum Humidity 85    
Minimum Humidity 56    
Precipitation  
Precipitation 0.00 in 0.09 in 2.13 in (1905)
Month to date precipitation 1.44  
Year to date precipitation 21.97  
Snow  
Snow 0.00 in 0.00 in - ()
Month to date snowfall 0.0  
Since 1 July snowfall 0.0  
Snow Depth -    
Sea Level Pressure  
Sea Level Pressure 30.26 in    
Wind  
Wind Speed 7 mph (ESE)    
Max Wind Speed 15 mph    
Max Gust Speed 18 mph    
Visibility 10 miles    
Events      
T = Trace of Precipitation, MM = Missing Value Source: NWS Daily Summary

Daily Weather History Graph

Daily Weather History Graph

Search for Another Location

Airport or City:

Trip Planner

Search our weather history database for the weather conditions in past years. The results will help you decide how hot, cold, wet, or windy it might be!

Date:

Astronomy

Sep. 16, 2013 Rise Set
Actual Time 7:13 AM CDT 7:39 PM CDT
Civil Twilight 6:45 AM CDT 8:07 PM CDT
Nautical Twilight 6:13 AM CDT 8:39 PM CDT
Astronomical Twilight 5:39 AM CDT 9:13 PM CDT
Moon 5:50 PM CDT (9/16) 3:59 AM CDT (9/16)
Length of Visible Light 13h 21m
Length of Day
12h 25m
Waxing Gibbous, 90% of the Moon is Illuminated
Sep 16
Waxing Gibbous
Sep 19
Full
Sep 26
Last Quarter
Oct 4
New
Oct 11
First Quarter

Hourly Weather History & Observations

Time (CDT) Temp. Dew Point Humidity Pressure Visibility Wind Dir Wind Speed Gust Speed Precip Events Conditions
12:15 AM 59.2 °F 51.8 °F 77% 30.29 in 10.0 mi NE 4.6 mph - N/A   Overcast
12:35 AM 59.2 °F 51.8 °F 77% 30.29 in 10.0 mi NE 5.8 mph - N/A   Overcast
12:55 AM 59.0 °F 51.4 °F 76% 30.29 in 10.0 mi NE 6.9 mph - N/A   Overcast
1:15 AM 59.0 °F 51.4 °F 76% 30.29 in 10.0 mi NE 6.9 mph - N/A   Overcast
1:35 AM 59.0 °F 51.4 °F 76% 30.29 in 10.0 mi NE 6.9 mph - N/A   Overcast
1:55 AM 59.0 °F 51.6 °F 76% 30.29 in 10.0 mi NE 5.8 mph - N/A   Overcast
2:15 AM 59.0 °F 51.4 °F 76% 30.29 in 10.0 mi NE 5.8 mph - N/A   Overcast
2:35 AM 59.0 °F 51.4 °F 76% 30.29 in 10.0 mi NE 4.6 mph - N/A   Overcast
2:55 AM 59.0 °F 51.4 °F 76% 30.29 in 10.0 mi NE 3.5 mph - N/A   Overcast
3:15 AM 58.6 °F 51.3 °F 76% 30.29 in 10.0 mi NE 4.6 mph - N/A   Overcast
3:35 AM 58.6 °F 51.1 °F 76% 30.29 in 10.0 mi Calm Calm - N/A   Overcast
3:55 AM 58.6 °F 51.1 °F 76% 30.29 in 10.0 mi ENE 4.6 mph - N/A   Overcast
4:15 AM 58.6 °F 50.9 °F 75% 30.29 in 10.0 mi East 3.5 mph - N/A   Overcast
4:35 AM 58.5 °F 50.9 °F 76% 30.29 in 10.0 mi East 4.6 mph - N/A   Overcast
4:55 AM 58.5 °F 50.4 °F 74% 30.29 in 10.0 mi East 3.5 mph - N/A   Overcast
5:15 AM 58.6 °F 49.3 °F 71% 30.30 in 10.0 mi ESE 8.1 mph - N/A   Overcast
5:35 AM 58.5 °F 48.6 °F 70% 30.30 in 10.0 mi ESE 10.4 mph - N/A   Overcast
5:55 AM 58.3 °F 48.9 °F 71% 30.30 in 10.0 mi East 4.6 mph - N/A   Overcast
6:15 AM 58.1 °F 49.5 °F 73% 30.30 in 10.0 mi East 3.5 mph - N/A   Overcast
6:35 AM 57.7 °F 50.0 °F 75% 30.30 in 10.0 mi East 3.5 mph - N/A   Overcast
6:55 AM 58.1 °F 49.3 °F 72% 30.30 in 10.0 mi ESE 5.8 mph - N/A   Overcast
7:15 AM 58.1 °F 49.5 °F 73% 30.31 in 10.0 mi ESE 3.5 mph - N/A   Overcast
7:35 AM 58.1 °F 49.6 °F 73% 30.31 in 10.0 mi ESE 4.6 mph - N/A   Overcast
7:55 AM 57.7 °F 50.0 °F 75% 30.32 in 10.0 mi ESE 4.6 mph - N/A   Overcast
8:15 AM 57.9 °F 50.4 °F 76% 30.32 in 10.0 mi East 4.6 mph - N/A   Overcast
8:35 AM 57.7 °F 51.1 °F 78% 30.32 in 10.0 mi East 6.9 mph - N/A   Overcast
8:55 AM 58.1 °F 50.4 °F 75% 30.32 in 10.0 mi East 5.8 mph - N/A   Overcast
9:15 AM 58.3 °F 50.0 °F 74% 30.32 in 10.0 mi ESE 5.8 mph - N/A   Overcast
9:35 AM 58.6 °F 49.6 °F 72% 30.33 in 10.0 mi ESE 5.8 mph - N/A   Overcast
9:55 AM 59.0 °F 49.1 °F 70% 30.34 in 10.0 mi East 8.1 mph - N/A   Overcast
10:15 AM 59.0 °F 49.3 °F 70% 30.33 in 10.0 mi SE 9.2 mph - N/A   Overcast
10:35 AM 59.4 °F 48.6 °F 67% 30.33 in 10.0 mi ESE 8.1 mph - N/A   Overcast
10:55 AM 59.7 °F 49.3 °F 68% 30.33 in 10.0 mi SE 6.9 mph - N/A   Overcast
11:15 AM 60.4 °F 49.6 °F 68% 30.32 in 10.0 mi ESE 8.1 mph - N/A   Overcast
11:35 AM 59.9 °F 50.0 °F 70% 30.32 in 10.0 mi SE 11.5 mph - N/A   Overcast
11:55 AM 60.4 °F 50.0 °F 68% 30.32 in 10.0 mi ESE 9.2 mph - N/A   Overcast
12:15 PM 60.6 °F 50.5 °F 69% 30.32 in 10.0 mi SE 6.9 mph - N/A   Overcast
12:35 PM 60.8 °F 50.4 °F 68% 30.31 in 10.0 mi ESE 10.4 mph - N/A   Overcast
12:55 PM 61.3 °F 51.3 °F 69% 30.30 in 10.0 mi ESE 10.4 mph - N/A   Overcast
1:15 PM 61.9 °F 50.5 °F 66% 30.30 in 10.0 mi ESE 9.2 mph - N/A   Overcast
1:35 PM 62.8 °F 49.8 °F 63% 30.29 in 10.0 mi ESE 8.1 mph - N/A   Overcast
1:55 PM 63.0 °F 50.2 °F 63% 30.28 in 10.0 mi SE 10.4 mph - N/A   Overcast
2:15 PM 64.4 °F 50.4 °F 60% 30.26 in 10.0 mi ESE 9.2 mph - N/A   Mostly Cloudy
2:35 PM 64.8 °F 50.5 °F 60% 30.26 in 10.0 mi SE 11.5 mph - N/A   Mostly Cloudy
2:55 PM 66.7 °F 50.7 °F 56% 30.25 in 10.0 mi SE 13.8 mph 17.3 mph N/A   Mostly Cloudy
3:15 PM 64.4 °F 50.4 °F 60% 30.24 in 10.0 mi ESE 10.4 mph - N/A   Mostly Cloudy
3:35 PM 65.8 °F 50.5 °F 58% 30.23 in 10.0 mi SE 10.4 mph - N/A   Mostly Cloudy
3:55 PM 66.4 °F 51.6 °F 59% 30.22 in 10.0 mi ESE 9.2 mph - N/A   Overcast
4:15 PM 65.8 °F 51.1 °F 59% 30.21 in 10.0 mi SE 12.7 mph - N/A   Overcast
4:35 PM 64.9 °F 50.2 °F 59% 30.21 in 10.0 mi ESE 13.8 mph - N/A   Overcast
4:55 PM 64.6 °F 50.9 °F 61% 30.20 in 10.0 mi SE 10.4 mph - N/A   Overcast
5:15 PM 63.9 °F 50.9 °F 63% 30.20 in 10.0 mi SE 11.5 mph - N/A   Overcast
5:35 PM 63.5 °F 50.9 °F 63% 30.20 in 10.0 mi SE 11.5 mph - N/A   Mostly Cloudy
5:55 PM 63.0 °F 50.5 °F 64% 30.20 in 10.0 mi SE 9.2 mph - N/A   Overcast
6:15 PM 62.6 °F 50.9 °F 66% 30.19 in 10.0 mi SE 8.1 mph - N/A   Overcast
6:35 PM 62.6 °F 50.9 °F 66% 30.19 in 10.0 mi SE 10.4 mph - N/A   Overcast
6:55 PM 61.9 °F 51.1 °F 68% 30.19 in 10.0 mi SSE 9.2 mph - N/A   Overcast
7:15 PM 61.3 °F 52.0 °F 71% 30.18 in 10.0 mi SSE 8.1 mph - N/A   Overcast
7:35 PM 59.9 °F 52.7 °F 77% 30.18 in 10.0 mi South 8.1 mph - N/A   Overcast
7:55 PM 59.2 °F 53.2 °F 81% 30.18 in 10.0 mi SSE 9.2 mph - N/A   Overcast
8:15 PM 59.0 °F 53.4 °F 82% 30.18 in 10.0 mi South 6.9 mph - N/A   Overcast
8:35 PM 58.5 °F 53.4 °F 83% 30.18 in 10.0 mi SSE 8.1 mph - N/A   Overcast
8:55 PM 58.5 °F 53.6 °F 84% 30.18 in 10.0 mi South 8.1 mph - N/A   Overcast
9:15 PM 58.3 °F 53.6 °F 84% 30.18 in 10.0 mi South 8.1 mph - N/A   Overcast
9:35 PM 58.1 °F 53.6 °F 85% 30.18 in 10.0 mi SSE 8.1 mph - N/A   Overcast
9:55 PM 58.1 °F 53.4 °F 84% 30.18 in 10.0 mi SSE 9.2 mph - N/A   Overcast
10:15 PM 58.1 °F 53.1 °F 83% 30.18 in 10.0 mi SSE 10.4 mph - N/A   Overcast
10:35 PM 58.1 °F 53.1 °F 83% 30.18 in 10.0 mi SSE 10.4 mph 16.1 mph N/A   Overcast
10:55 PM 58.1 °F 53.1 °F 83% 30.18 in 10.0 mi SSE 11.5 mph 17.3 mph N/A   Overcast
11:15 PM 57.9 °F 52.9 °F 83% 30.18 in 10.0 mi SSE 15.0 mph 18.4 mph N/A   Overcast
11:35 PM 57.7 °F 52.9 °F 84% 30.18 in 10.0 mi SSE 11.5 mph 18.4 mph N/A   Overcast
11:55 PM 57.4 °F 53.1 °F 85% 30.18 in 10.0 mi SSE 12.7 mph - N/A   Overcast